Imperial, NE

5:02 AM MST on January 24, 2018 (GMT -0700)
Imperial Municipal

Weather History for KIML - September, 2012

Change the Weather History Date:

Wednesday, September 12, 2012

  Actual Average Record
Temperature  
Mean Temperature 60 °F 66 °F  
Max Temperature 69 °F 81 °F 103 °F (1931)
Min Temperature 50 °F 51 °F 24 °F (1902)
Degree Days  
Heating Degree Days 5 2  
Month to date heating degree days 9 19  
Cooling Degree Days 0 3  
Month to date cooling degree days 93 57  
Year to date cooling degree days 1365 923  
Growing Degree Days 10 (Base 50)    
Moisture  
Dew Point 45 °F    
Average Humidity 59    
Maximum Humidity 93    
Minimum Humidity 25    
Precipitation  
Precipitation 0.08 in 0.05 in 2.30 in (1933)
Sea Level Pressure  
Sea Level Pressure 30.19 in    
Wind  
Wind Speed 13 mph (NNE)    
Max Wind Speed 29 mph    
Max Gust Speed 35 mph    
Visibility 9 miles    
Events Rain    
T = Trace of Precipitation, MM = Missing Value Source: NWS Daily Summary

Daily Weather History Graph

Daily Weather History Graph

Search for Another Location

Airport or City:

Trip Planner

Search our weather history database for the weather conditions in past years. The results will help you decide how hot, cold, wet, or windy it might be!

Date:

Astronomy

Sep. 12, 2012 Rise Set
Actual Time 6:24 AM MDT 6:59 PM MDT
Civil Twilight 5:57 AM MDT 7:26 PM MDT
Nautical Twilight 5:24 AM MDT 7:59 PM MDT
Astronomical Twilight 4:51 AM MDT 8:32 PM MDT
Moon 2:43 AM MDT (9/12) 4:48 PM MDT (9/12)
Length of Visible Light 13h 29m
Length of Day
12h 34m
Waning Crescent, 13% of the Moon is Illuminated
Sep 12
Waning Crescent
Sep 15
New
Sep 22
First Quarter
Sep 29
Full
Oct 8
Last Quarter

Hourly Weather History & Observations

Time (MDT) Temp. Dew Point Humidity Pressure Visibility Wind Dir Wind Speed Gust Speed Precip Events Conditions
12:53 AM 69.1 °F 32.0 °F 25% 29.86 in 10.0 mi NNE 23.0 mph 36.8 mph N/A   Clear
1:53 AM 66.9 °F 32.0 °F 27% 29.89 in 10.0 mi NNE 25.3 mph 32.2 mph N/A   Clear
2:53 AM 66.0 °F 32.0 °F 28% 29.89 in 10.0 mi NNE 25.3 mph 33.4 mph N/A   Clear
3:53 AM 64.0 °F 30.9 °F 29% 29.91 in 10.0 mi NNE 19.6 mph 34.5 mph N/A   Clear
4:53 AM 63.0 °F 33.1 °F 33% 29.95 in 10.0 mi NE 15.0 mph 24.2 mph N/A   Partly Cloudy
5:53 AM 61.0 °F 37.0 °F 41% 29.99 in 10.0 mi North 12.7 mph 18.4 mph 0.00 in Rain Light Rain
6:53 AM 61.0 °F 37.9 °F 42% 30.06 in 10.0 mi NE 17.3 mph 23.0 mph 0.00 in   Overcast
7:53 AM 59.0 °F 37.0 °F 44% 30.10 in 10.0 mi NNE 18.4 mph 28.8 mph 0.00 in   Clear
8:53 AM 57.9 °F 37.0 °F 46% 30.13 in 10.0 mi NNE 13.8 mph 26.5 mph N/A   Mostly Cloudy
9:53 AM 60.1 °F 39.0 °F 46% 30.14 in 10.0 mi NE 18.4 mph 26.5 mph N/A   Overcast
10:53 AM 62.1 °F 42.1 °F 48% 30.14 in 10.0 mi NE 15.0 mph 24.2 mph N/A   Mostly Cloudy
11:53 AM 53.1 °F 48.9 °F 86% 30.19 in 10.0 mi NNW 17.3 mph - 0.00 in Rain Light Rain
12:15 PM 53.6 °F 50.0 °F 88% 30.25 in 7.0 mi NNW 15.0 mph - 0.01 in Rain Light Rain
12:53 PM 55.0 °F 52.0 °F 89% 30.21 in 10.0 mi North 12.7 mph - 0.02 in Rain Light Rain
1:53 PM 57.9 °F 51.1 °F 78% 30.20 in 10.0 mi North 15.0 mph - 0.00 in   Mostly Cloudy
2:33 PM 55.4 °F 51.8 °F 88% 30.26 in 10.0 mi North 13.8 mph - 0.00 in Rain Light Rain
2:53 PM 55.0 °F 51.1 °F 86% 30.23 in 8.0 mi North 13.8 mph - 0.00 in Rain Light Rain
3:25 PM 55.4 °F 51.8 °F 88% 30.27 in 5.0 mi NNE 12.7 mph - 0.02 in Rain Light Rain
3:53 PM 54.0 °F 52.0 °F 93% 30.25 in 4.0 mi North 11.5 mph - 0.05 in Rain Light Rain
4:38 PM 55.4 °F 53.6 °F 94% 30.29 in 6.0 mi NNE 8.1 mph - 0.01 in   Overcast
4:53 PM 54.0 °F 51.1 °F 90% 30.26 in 8.0 mi NE 10.4 mph - 0.01 in   Overcast
5:53 PM 54.0 °F 51.1 °F 90% 30.28 in 9.0 mi NE 10.4 mph - N/A   Overcast
6:10 PM 53.6 °F 51.8 °F 94% 30.31 in 9.0 mi NE 6.9 mph - N/A   Overcast
6:38 PM 53.6 °F 51.8 °F 94% 30.32 in 9.0 mi NE 5.8 mph - N/A   Overcast
6:53 PM 53.6 °F 51.8 °F 94% 30.32 in 9.0 mi NE 6.9 mph - N/A   Overcast
7:53 PM 53.1 °F 50.0 °F 89% 30.32 in 10.0 mi NE 5.8 mph - N/A   Overcast
8:53 PM 53.1 °F 50.0 °F 89% 30.35 in 10.0 mi NNE 4.6 mph - N/A   Overcast
9:36 PM 53.6 °F 48.2 °F 82% 30.37 in 10.0 mi North 5.8 mph - N/A   Overcast
9:53 PM 53.1 °F 48.9 °F 86% 30.35 in 10.0 mi North 4.6 mph - N/A   Overcast
10:53 PM 52.0 °F 48.9 °F 89% 30.37 in 10.0 mi NNW 3.5 mph - N/A   Mostly Cloudy
11:53 PM 52.0 °F 48.9 °F 89% 30.40 in 9.0 mi NNW 4.6 mph - N/A   Overcast